Flag Weather past 2 weeks in Pittsburgh, Pennsylvania, U.S.A.

Now
25 °F

Overcast.


Feels Like: 15 °F
Forecast: 28 / 31 °F
Wind: 10 mph from West

Location: Allegheny County Airport

Current Time: Nov 28, 2014 at 12:18:34 PM

Latest Report: Nov 28, 2014 at 11:53 AM


Visibility: 10 mi

Pressure: 30.35 "Hg

Humidity: 50%

Dew point: 9 °F

Location of PittsburghLocation

Historic Weather in Pittsburgh — Graph

°F

Pittsburgh temperature yesterday

Maximum temperature yesterday: 34 °F (at 10:53 AM)
Minimum temperature yesterday: 28 °F (at 8:53 PM)
Average temperature yesterday: 31 °F

Past Weeks' High & Low Weather Summary

 TemperatureHumidityPressure
High68 °F (Nov 24, 11:53 AM)93% (Nov 17, 4:53 AM)30.54 "Hg (Nov 17, 4:53 AM)
Low12 °F (Nov 19, 4:53 AM)33% (Nov 24, 3:02 PM)29.40 "Hg (Nov 24, 3:53 AM)
Average33 °F61%30.09 "Hg
* Reported Nov 13 10:53 AM — Nov 28 10:53 AM, Pittsburgh, Weather by CustomWeather, © 2014

Note: Actual official high and low records may vary slightly from our data, if they occured in-between our weather recording intervals... More about our weather records

Advertising

Pittsburgh weather history for previous 24 hours

 ConditionsComfort  
Time TempWeatherWind HumidityBarometerVisibility
10:53 AM
Nov 28
25 °FOvercast.15 mph55%30.37 "Hg10 mi
9:53 AM25 °FPassing clouds.10 mph55%30.37 "Hg10 mi
8:53 AM24 °FOvercast.10 mph55%30.37 "Hg10 mi
7:53 AM24 °FOvercast.13 mph60%30.35 "Hg10 mi
7:00 AM26 °FOvercast.7 mph71%30.28 "Hg10 mi
5:53 AM25 °FLight snow. Ice fog.No wind85%30.31 "Hg5 mi
4:53 AM26 °FLight snow. Mostly cloudy.6 mph77%30.30 "Hg3 mi
3:53 AM27 °FOvercast.6 mph75%30.28 "Hg7 mi
2:53 AM28 °FMostly cloudy.8 mph72%30.27 "Hg10 mi
1:53 AM28 °FMostly cloudy.13 mph72%30.24 "Hg10 mi
12:53 AM28 °FMostly cloudy.9 mph78%30.24 "Hg5 mi
11:53 PM
Nov 27
29 °FOvercast.9 mph72%30.24 "Hg10 mi
10:53 PM29 °FMostly cloudy.13 mph72%30.24 "Hg10 mi
9:53 PM28 °FOvercast.9 mph78%30.24 "Hg9 mi
8:53 PM28 °FOvercast.10 mph78%30.23 "Hg9 mi
7:53 PM29 °FMostly cloudy.9 mph75%30.23 "Hg7 mi
6:53 PM29 °FMostly cloudy.9 mph72%30.21 "Hg10 mi
5:53 PM30 °FMostly cloudy.13 mph69%30.19 "Hg10 mi
4:58 PM30 °FLight snow. Overcast.9 mph82%30.12 "Hg1 mi
3:53 PM32 °FMostly cloudy.10 mph75%30.14 "Hg8 mi
3:03 PM32 °FLight snow. Mostly cloudy.15 mph82%30.06 "Hg1 mi
3:00 PM33 °FLight snow. Mostly cloudy.17 mph78%30.05 "Hg2 mi
2:01 PM33 °FLight snow. Cloudy.9 mph78%30.05 "Hg3 mi
12:53 PM34 °FMostly cloudy.6 mph73%30.10 "Hg6 mi
Weather by CustomWeather, © 2014

See weather overviewHow to use our weather pages